Location: Vinland
(47.7731°N, 122.6974°W)
Time: 01:59:17
(UTC+00:00)

Transit 4A - Pass Details

Date: 05 April 2023
Orbit: 864 x 979 km, 66.8° (Epoch: 29 May)

Event Time Altitude Azimuth Distance (km) Brightness Sun altitude
Exits shadow 10:56:43 14° 150° (SSE) 2,230 9.7 -25.3°
Maximum altitude 11:00:07 23° 107° (ESE) 1,768 9.6 -24.9°
Drops below altitude 10° 11:04:38 10° 57° (ENE) 2,560 11.3 -24.4°
Sets 11:07:38 0° 44° (NE) 3,524 12.4 -24.0°
